Burlington, IA

2:07 PM CST on November 20, 2017 (GMT -0600)
Burlington Regional

Weather History for KBRL - March, 2013

Change the Weather History Date:

Thursday, March 7, 2013

  Actual Average Record
Temperature  
Mean Temperature 27 °F 38 °F  
Max Temperature 32 °F 47 °F 79 °F (2000)
Min Temperature 22 °F 28 °F -5 °F (1943)
Degree Days  
Heating Degree Days 38 27  
Month to date heating degree days 276 201  
Since 1 July heating degree days 4647 4579  
Cooling Degree Days 0 0  
Month to date cooling degree days 0 0  
Year to date cooling degree days 0 0  
Moisture  
Dew Point 21 °F    
Average Humidity 77    
Maximum Humidity 88    
Minimum Humidity 66    
Precipitation  
Precipitation 0.00 in 0.08 in 0.54 in (2009)
Month to date precipitation 0.38 0.59  
Year to date precipitation 4.35 3.45  
Sea Level Pressure  
Sea Level Pressure 30.39 in    
Wind  
Wind Speed 5 mph (SE)    
Max Wind Speed 10 mph    
Max Gust Speed 12 mph    
Visibility 10 miles    
Events      
T = Trace of Precipitation, MM = Missing Value Source: NWS Daily Summary

Daily Weather History Graph

Daily Weather History Graph

Search for Another Location

Airport or City:

Trip Planner

Search our weather history database for the weather conditions in past years. The results will help you decide how hot, cold, wet, or windy it might be!

Date:

Astronomy

Mar. 07, 2013 Rise Set
Actual Time 6:28 AM CST 6:02 PM CST
Civil Twilight 6:01 AM CST 6:30 PM CST
Nautical Twilight 5:29 AM CST 7:01 PM CST
Astronomical Twilight 4:57 AM CST 7:33 PM CST
Moon 3:29 AM CST (3/7) 1:49 PM CST (3/7)
Length of Visible Light 12h 28m
Length of Day
11h 34m
Waning Crescent, 20% of the Moon is Illuminated
Mar 7
Waning Crescent
Mar 11
New
Mar 19
First Quarter
Mar 27
Full
Apr 2
Last Quarter

Hourly Weather History & Observations

Time (CST) Temp. Windchill Dew Point Humidity Pressure Visibility Wind Dir Wind Speed Gust Speed Precip Events Conditions
12:53 AM 23.0 °F - 18.0 °F 81% 30.39 in 10.0 mi Calm Calm - N/A   Overcast
1:53 AM 24.1 °F - 18.0 °F 77% 30.40 in 10.0 mi Calm Calm - N/A   Overcast
2:53 AM 23.0 °F - 18.0 °F 81% 30.39 in 10.0 mi Calm Calm - N/A   Overcast
3:12 AM 24.8 °F - 17.6 °F 74% 30.36 in 10.0 mi Calm Calm - N/A   Overcast
3:53 AM 24.1 °F - 18.0 °F 77% 30.39 in 9.0 mi Calm Calm - N/A   Overcast
4:53 AM 24.1 °F 19.7 °F 18.0 °F 77% 30.38 in 10.0 mi East 3.5 mph - N/A   Overcast
5:53 AM 23.0 °F 18.4 °F 18.0 °F 81% 30.39 in 10.0 mi ESE 3.5 mph - N/A   Overcast
6:53 AM 21.9 °F 17.2 °F 18.0 °F 85% 30.42 in 8.0 mi SE 3.5 mph - N/A   Overcast
7:53 AM 23.0 °F 17.0 °F 19.0 °F 85% 30.43 in 9.0 mi ESE 4.6 mph - N/A   Overcast
8:39 AM 23.0 °F 15.8 °F 19.4 °F 86% 30.41 in 10.0 mi South 5.8 mph - N/A   Overcast
8:53 AM 23.0 °F 15.8 °F 19.9 °F 88% 30.44 in 10.0 mi SSE 5.8 mph - N/A   Overcast
9:53 AM 24.1 °F 14.4 °F 19.9 °F 84% 30.44 in 9.0 mi SE 9.2 mph - N/A   Overcast
10:53 AM 25.0 °F 18.1 °F 21.0 °F 85% 30.43 in 9.0 mi SSE 5.8 mph - N/A   Overcast
11:53 AM 27.0 °F 21.6 °F 21.9 °F 81% 30.42 in 9.0 mi SSW 4.6 mph - N/A   Overcast
12:01 PM 26.6 °F 20.0 °F 21.2 °F 80% 30.39 in 9.0 mi SSW 5.8 mph - N/A   Overcast
12:38 PM 28.4 °F 23.3 °F 21.2 °F 74% 30.37 in 10.0 mi South 4.6 mph - N/A   Scattered Clouds
12:53 PM 28.0 °F 22.8 °F 21.9 °F 78% 30.40 in 10.0 mi South 4.6 mph - N/A   Clear
1:53 PM 30.0 °F - 21.0 °F 69% 30.38 in 9.0 mi Calm Calm - N/A   Clear
2:53 PM 30.9 °F 24.3 °F 21.0 °F 67% 30.37 in 10.0 mi SE 6.9 mph - N/A   Clear
3:53 PM 32.0 °F 25.6 °F 23.0 °F 69% 30.37 in 10.0 mi East 6.9 mph - N/A   Clear
4:53 PM 30.9 °F 23.5 °F 23.0 °F 72% 30.36 in 10.0 mi East 8.1 mph - N/A   Clear
5:53 PM 30.9 °F 26.2 °F 23.0 °F 72% 30.37 in 10.0 mi East 4.6 mph - N/A   Clear
6:53 PM 28.9 °F 25.2 °F 21.9 °F 75% 30.38 in 10.0 mi East 3.5 mph - N/A   Clear
7:53 PM 28.9 °F 21.9 °F 23.0 °F 78% 30.36 in 10.0 mi East 6.9 mph - N/A   Clear
8:53 PM 28.0 °F 22.8 °F 21.9 °F 78% 30.38 in 9.0 mi ESE 4.6 mph - N/A   Clear
9:53 PM 27.0 °F 19.5 °F 23.0 °F 85% 30.36 in 8.0 mi East 6.9 mph - N/A   Clear
10:53 PM 27.0 °F 19.5 °F 23.0 °F 85% 30.38 in 9.0 mi ESE 6.9 mph - N/A   Clear
11:53 PM 27.0 °F 18.7 °F 24.1 °F 89% 30.39 in 9.0 mi ESE 8.1 mph - N/A   Clear